Preview of NWS' New Version of Forecast
This preview is not operational and should not be used for support decisions.

Regional Weather Roundup (RWR)

Issued by National Weather Service (NWS)

                            
000
ASUS43 KTOP 201459
RWRKS 

WEATHER ROUNDUP FOR KANSAS
NATIONAL WEATHER SERVICE GOODLAND KS
1000 AM CDT TUE AUG 20 2019

NOTE:  "FAIR" INDICATES FEW OR NO CLOUDS BELOW 12,000 FEET WITH NO
SIGNIFICANT WEATHER AND/OR OBSTRUCTIONS TO VISIBILITY.

KSZ001>006-013>018-027>032-041>047-201600-
NORTHWEST KANSAS
  
CITY           SKY/WX    TMP DP  RH WIND       PRES   REMARKS
GOODLAND       SUNNY     77  62  59 S8        30.03R                  
HAYS           SUNNY     84  69  60 S15       29.94R                  
HILL CITY      SUNNY     85  66  53 S10       29.96F                  
RUSSELL        SUNNY     85  68  56 S15       29.96R                  
$$

KSZ061>065-074>080-084>089-201600-
SOUTHWEST KANSAS
  
CITY           SKY/WX    TMP DP  RH WIND       PRES   REMARKS
DODGE CITY     SUNNY     88  64  44 SW22G30   30.02R                  
GARDEN CITY    SUNNY     80  63  55 S14       30.02S                  
GREAT BEND     SUNNY     84  70  62 S15       29.98S                  
LIBERAL        SUNNY     82  65  56 SW15      30.04S                  
$$

KSZ066>073-081>083-090>101-201600-
SOUTHEAST KANSAS
  
CITY           SKY/WX    TMP DP  RH WIND       PRES   REMARKS
CHANUTE        SUNNY     87  75  67 SW13      30.02F HX  96           
COFFEYVILLE    SUNNY     86  73  65 SW10      30.01F                  
HUTCHINSON     SUNNY     88  69  53 S12G20    29.99F                  
MEDICINE LODGE   N/A     86  68  54 S8        29.99S                  
NEWTON         SUNNY     85  71  63 SW15      30.01F                  
PARSONS        SUNNY     86  76  71 SW8       30.04S HX  96           
WICHITA INTL   MOSUNNY   87  70  56 S13       30.00S                  
WICHITA JABRA  SUNNY     86  72  62 S10       30.00F                  
WICHITA MCCONL SUNNY     86  68  54 S15       30.01S                  
$$

KSZ007>012-019>026-033>040-048>060-102>105-201600-
NORTHEAST KANSAS
  
CITY           SKY/WX    TMP DP  RH WIND       PRES   REMARKS
CONCORDIA      SUNNY     83  72  69 SW8       29.95S                  
EMPORIA        SUNNY     88  73  61 SW14      29.99S HX  95           
LAWRENCE       SUNNY     89  73  59 SW9       29.96S HX  97           
MANHATTAN      SUNNY     84  73  69 SW12      29.94F                  
OLATHE IND     SUNNY     84  73  69 SW15      29.99S                  
OLATHE EXE     SUNNY     84  73  69 SW12      29.99S                  
SALINA         SUNNY     85  71  63 S10       29.95F                  
TOPEKA BILLARD SUNNY     86  72  62 S8        29.94F                  
TOPEKA FORBES  SUNNY     88  73  61 SW13G20   29.96S HX  95           
$$